Regional Weather Roundup
Issued by NWS Goodland, KS

Home | Current Version | Previous Version | Graphics & Text | Print | Product List | Glossary On
Versions: 1 2 3 4 5 6 7 8 9 10 11 12 13 14 15 16 17 18 19 20 21 22 23 24 25 26 27 28 29 30 31 32 33 34 35 36 37 38 39 40 41 42 43 44 45 46 47 48 49 50
000
ASUS43 KGLD 300808
RWRGLD

GOODLAND FORECAST AREA HOURLY WEATHER ROUNDUP
NATIONAL WEATHER SERVICE GOODLAND KS
200 AM MDT WED JUL 30 2014

...OFFICIAL OBSERVATIONS...

CITY           SKY/WX    TMP DP  RH WIND       PRES   REMARKS
GOODLAND KS    CLOUDY    63  61  93 N13       30.15F
HILL CITY KS   CLOUDY    69  57  65 E12       30.11F
IMPERIAL NEB   LGT RAIN  63  60  90 E6        30.20F
MCCOOK NEB     RAIN      63  61  93 E12       30.17S FOG
AKRON CO       CLOUDY    61  60  97 E12       30.24R
BURLINGTON CO  CLOUDY    61  59  93 N7        30.16F
LIMON CO       CLOUDY    58  56  93 NE7       30.24S
$$

...UNOFFICIAL OBSERVATIONS...

CITY           SKY/WX    TMP DP  RH WIND       PRES   REMARKS
GOVE KS          N/A     68  32  26 MISG        N/A
LENORA KS        N/A     67  32  27 MISG        N/A
OBERLIN KS     CLOUDY    68  55  64 NE14      30.15R
ST FRANCIS KS  LGT RAIN  63  59  88 N9        30.17F
WAKEENEY KS      N/A     69  55  60 MISG        N/A
TRENTON NEB      N/A     63  32  31 NE15        N/A
KIT CARSON CO    N/A     62  58  88 N7          N/A
WRAY CO          N/A    N/A N/A N/A NE9       30.20F
YUMA CO          N/A     63  63 100 NE12        N/A
$$



USA.gov is the U.S. government's official web portal to all federal, state and local government web resources and services.